RH
98 98 96 70 92 98 100 95 29 6 5 15 14 60 53 68 38 46 74 67 46 44 41 32 28 36 29 28 28 29 30 32 30 28 34 33 31 32 34 35 38 38 44 34
97 98 99 84 94 97 100 100 93 57 13 17 8 43 74 71 20 25 53 47 60 55 48 42 36 34 30 27 27 28 29 32 31 30 28 28 28 25 31 38 40 41 51 37
97 96 96 92 78 98 99 98 99 78 81 5 12 64 89 84 10 32 40 44 46 57 52 44 38 34 27 26 29 30 31 29 29 30 26 24 26 27 31 36 42 39 37 34
97 97 96 78 80 97 98 98 96 98 94 19 13 29 55 46 22 19 36 27 30 48 55 55 36 34 31 29 28 31 34 33 28 22 21 24 26 32 32 32 35 41 38 40
96 97 95 86 96 97 100 93 97 96 61 27 27 74 81 47 10 21 25 25 22 30 48 52 42 40 29 27 28 32 34 35 33 28 31 34 32 31 30 38 38 40 42 43
96 97 97 86 98 94 91 94 93 100 84 64 56 10 59 51 21 17 50 13 19 24 27 48 47 56 50 41 31 31 37 35 40 40 38 36 39 33 32 32 30 30 40 38
97 97 94 98 94 87 63 74 89 100 100 74 30 40 78 86 7 10 13 28 27 17 29 37 49 54 43 42 44 34 33 33 42 38 40 62 35 35 33 30 36 36 33 30
97 96 95 93 94 80 66 69 79 98 97 80 99 74 58 73 27 14 13 19 30 63 66 37 53 61 52 46 43 44 40 35 42 39 39 37 38 36 34 29 31 31 29 29
97 96 94 93 94 94 87 61 92 97 98 83 79 99 95 62 25 27 7 13 26 39 56 74 75 64 55 56 52 47 45 44 42 46 47 66 41 43 42 35 40 41 34 35
97 94 94 96 95 86 85 71 95 98 98 99 96 72 70 68 33 23 13 8 23 63 80 80 68 70 54 53 50 49 47 44 47 48 52 52 50 48 40 44 35 34 33 33
96 96 94 95 96 97 76 74 94 99 97 98 96 87 64 54 28 25 29 38 21 35 60 77 92 72 55 48 46 44 45 53 57 62 69 70 50 51 48 44 35 34 32 32
96 96 94 76 98 86 79 86 96 99 98 90 98 96 95 54 33 22 21 24 15 20 53 66 70 68 53 49 47 45 46 40 43 49 50 47 43 38 49 42 39 35 38 38
95 95 80 90 99 99 97 77 97 97 97 97 96 87 83 75 56 45 51 60 60 35 38 61 64 70 62 56 49 44 45 43 51 45 38 29 32 40 35 37 40 40 39 40
96 99 96 100 98 97 89 84 97 97 91 97 98 83 83 79 74 57 47 54 62 59 66 49 62 68 58 54 47 43 42 43 43 41 38 29 25 31 35 35 37 38 36 39
96 97 98 100 100 95 95 88 96 97 84 95 93 85 79 68 65 67 58 71 95 66 72 60 59 66 62 58 60 51 44 42 41 33 19 23 22 27 30 34 34 33 40 45
94 94 92 95 93 95 97 95 82 84 97 98 70 81 89 99 100 86 57 70 82 85 88 72 64 70 66 59 57 53 47 46 20 19 25 26 28 37 40 38 38 45 52 55
98 98 97 95 97 96 98 92 97 75 48 80 94 85 93 86 73 89 60 74 88 77 96 86 76 71 68 63 56 52 48 34 30 23 25 30 33 35 40 46 50 52 55 59
89 90 93 91 85 95 92 72 77 97 98 97 96 94 90 90 97 81 67 80 98 90 98 90 80 75 66 63 60 66 46 40 30 25 27 34 44 50 49 46 49 53 58 64
71 64 65 59 77 81 90 84 76 80 92 93 81 100 78 91 100 88 77 79 88 96 98 100 97 80 69 60 52 47 41 34 25 32 36 45 54 57 56 54 52 57 63 72
93 81 94 97 91 72 94 96 98 98 98 98 97 86 87 56 53 98 100 98 98 97 99 99 87 92 80 70 58 48 40 38 47 48 50 53 57 60 61 59 67 78 83 89
96 92 83 65 74 92 94 97 96 98 98 96 85 92 98 94 91 67 98 100 96 95 91 79 90 96 88 76 71 77 90 80 76 83 79 61 70 72 76 81 88 90 86 84
59 84 75 89 85 86 93 88 96 99 97 92 81 90 88 99 99 94 98 99 90 84 94 85 96 90 85 74 86 80 79 86 80 76 76 78 84 86 85 85 85 85 98 100
98 97 85 96 97 95 88 98 98 100 92 94 99 87 97 99 99 96 97 99 98 94 99 96 79 61 58 58 69 79 83 81 87 92 96 98 98 98 97 97 98 98 98 99
90 72 81 98 98 97 97 100 100 98 92 90 96 91 100 98 99 100 99 99 98 94 94 86 75 59 60 65 71 83 95 100 100 100 99 98 98 97 97 97 97 97 96 96
90 90 96 97 98 98 98 95 88 79 94 100 99 99 99 100 99 98 98 100 100 99 100 97 82 82 89 94 99 100 100 99 98 98 98 97 97 96 96 96 96 96 95 94
96 98 98 98 99 99 98 96 95 96 99 99 99 98 98 98 99 100 99 97 98 99 99 98 99 100 100 99 98 97 97 98 98 97 97 97 96 96 96 96 96 95 94 94
96 97 98 99 100 99 100 100 100 100 98 97 97 97 96 97 98 96 96 96 97 97 100 100 100 98 98 98 97 97 98 98 98 97 96 96 96 96 96 94 94 94 94 95
Wind_Speed
54 49 44 37 47 45 40 37 57 61 56 50 55 57 53 41 38 34 28 14 18 19 23 28 31 24 31 21 25 28 22 12 20 23 14 14 12 13 17 16 7 7 6 16
57 50 46 42 61 51 43 46 48 37 51 58 64 56 50 42 45 39 38 33 15 14 14 17 26 29 26 27 19 21 23 30 19 21 28 24 27 24 23 19 12 15 7 15
55 52 48 45 60 58 48 44 38 41 44 65 64 56 42 50 50 43 42 39 32 19 14 14 22 26 27 30 26 21 21 29 26 27 27 18 18 22 19 19 12 14 22 26
54 54 48 47 62 58 54 53 44 49 54 66 68 59 52 53 54 51 44 41 44 30 17 10 22 25 29 27 23 23 24 22 31 28 30 27 24 21 21 23 25 22 24 23
54 57 51 51 56 62 53 62 47 51 52 65 63 47 55 53 55 47 48 49 40 42 28 10 12 11 23 26 25 25 25 21 22 30 25 21 21 20 21 22 22 24 21 22
56 58 50 60 59 56 59 64 53 42 54 50 61 77 56 56 51 56 39 39 41 40 39 21 18 18 17 20 25 26 28 25 22 22 19 20 23 25 25 29 31 30 28 27
54 58 51 58 56 65 60 68 60 44 39 50 65 62 59 46 60 55 51 37 27 33 36 28 24 22 21 21 22 27 29 30 26 20 18 3 26 27 26 28 31 31 33 34
53 58 52 63 59 58 58 59 63 41 40 51 41 50 50 50 50 52 50 35 31 11 18 31 23 21 23 20 24 29 32 28 22 15 20 23 21 23 21 17 20 20 23 26
55 55 49 57 70 60 55 59 60 29 25 46 48 37 41 46 55 52 54 41 22 36 23 21 16 14 17 15 23 25 27 27 30 14 8 8 26 21 25 22 28 24 16 11
52 49 46 52 62 65 61 62 66 53 22 20 33 47 45 37 41 51 52 46 35 26 21 21 27 28 20 21 27 23 27 28 27 25 17 19 22 19 15 19 28 19 20 15
46 43 43 47 54 56 61 60 68 54 33 23 21 34 44 42 39 38 35 35 42 43 35 23 20 21 27 26 28 33 32 28 26 26 16 16 23 22 26 27 19 17 13 14
39 41 43 50 48 58 48 58 60 56 23 31 16 36 36 39 40 43 33 36 36 36 32 29 24 18 19 27 31 33 34 35 29 27 27 27 18 14 21 22 21 11 9 11
36 44 48 51 51 50 51 58 55 40 21 28 27 25 22 24 29 38 35 23 22 26 35 29 26 19 28 22 29 28 33 28 35 28 29 28 25 21 18 16 17 16 11 12
40 45 45 46 47 47 42 66 42 19 30 32 13 25 27 25 29 36 40 27 24 25 25 37 33 25 21 27 27 31 32 30 33 34 30 23 19 18 17 15 15 15 14 14
38 37 42 38 42 40 47 66 33 33 38 25 17 21 24 24 29 28 37 29 27 30 30 36 36 32 26 22 24 33 30 29 31 32 23 22 16 13 16 18 16 16 15 16
32 31 32 31 34 49 29 42 41 47 27 19 11 14 22 18 19 26 33 33 34 33 27 32 36 31 30 25 25 32 30 29 21 19 18 16 16 19 17 17 17 18 20 22
32 32 33 38 44 36 37 45 28 40 53 41 14 7 12 24 25 23 34 35 32 38 33 32 36 39 28 31 35 34 28 24 23 22 21 21 20 19 19 20 20 21 24 26
33 29 28 27 25 22 33 38 41 28 30 33 7 5 4 16 18 26 35 36 35 39 39 34 34 34 35 36 38 36 30 23 26 25 24 22 19 19 20 22 24 23 24 26
35 32 28 23 29 37 28 37 44 38 29 15 12 11 8 10 15 27 34 36 38 35 38 36 32 30 28 26 25 25 24 23 24 24 24 24 23 24 25 25 25 26 27 29
39 37 34 33 29 37 24 29 16 16 28 24 7 10 16 19 28 10 32 32 27 28 30 28 29 36 40 29 28 24 23 25 20 21 23 26 29 30 30 27 27 29 30 29
41 39 29 35 36 31 31 7 10 11 11 23 25 17 18 16 15 16 12 21 22 19 19 32 25 40 35 37 30 29 26 21 21 24 28 31 29 28 26 25 26 29 29 28
28 27 30 32 24 16 16 8 7 10 10 9 10 14 18 16 26 17 8 7 13 8 18 23 19 27 30 31 31 27 25 31 31 32 32 31 29 27 25 24 26 26 25 25
30 29 33 15 7 11 10 8 6 8 14 17 16 10 1 20 17 16 7 5 6 13 13 7 8 17 18 20 23 28 32 31 30 29 29 29 28 25 24 22 22 23 26 26
24 22 16 5 5 5 5 6 8 8 11 14 12 12 7 4 7 6 5 7 10 9 6 6 11 17 21 23 26 26 25 26 26 25 23 18 18 19 19 20 22 21 19 16
19 12 5 7 11 12 11 10 9 8 11 18 15 10 10 9 4 6 5 6 4 4 3 3 8 14 16 17 16 17 16 15 15 14 15 16 17 17 16 16 15 12 10 8
6 10 17 16 13 14 12 11 11 14 15 15 13 7 6 5 1 2 4 4 5 4 2 2 6 9 9 8 8 7 7 8 11 12 12 11 10 9 10 11 12 9 7 8
12 17 16 13 12 11 9 9 15 17 15 11 4 4 3 6 4 4 5 6 6 5 6 6 7 7 5 6 5 5 6 7 7 6 7 8 10 11 10 7 5 6 8 11
Wind_Direction
232 231 228 217 200 216 211 201 210 211 209 199 211 218 222 215 220 215 222 226 214 216 223 217 215 211 209 205 216 219 219 232 232 241 232 228 243 258 261 236 227 223 254 267
229 226 225 214 199 214 202 194 205 206 206 202 215 220 219 219 226 221 229 227 223 215 230 221 223 222 216 213 214 224 230 233 235 242 245 248 260 267 265 238 247 240 230 263
225 221 222 211 200 206 205 192 184 189 201 214 219 212 215 220 225 229 224 226 222 218 221 226 230 227 220 219 231 239 247 231 225 227 240 244 254 254 248 239 248 264 263 281
219 215 217 201 199 201 200 194 194 191 195 207 214 220 217 221 222 228 224 229 225 228 239 233 220 227 231 236 236 233 234 230 231 238 242 249 255 247 256 262 262 260 273 279
213 208 210 200 196 198 203 195 192 195 206 210 208 209 214 223 221 223 225 225 226 225 230 203 178 228 232 238 235 222 227 225 237 230 228 237 236 249 255 254 255 258 258 262
208 204 201 192 198 193 197 196 194 197 202 210 210 217 212 217 223 224 228 231 232 229 228 231 266 247 229 223 232 226 223 231 225 227 227 233 245 244 258 265 264 263 256 266
204 199 199 192 198 195 189 193 191 196 207 206 216 218 214 212 223 227 230 223 235 233 231 235 250 241 228 232 235 236 232 225 225 231 222 233 248 260 267 263 260 261 265 269
200 199 200 194 192 193 199 203 196 198 211 214 212 216 221 212 220 227 231 224 216 214 222 235 250 258 245 231 226 230 225 225 215 218 225 247 253 256 266 272 275 275 269 263
193 198 203 198 197 200 204 198 194 186 207 222 217 214 218 217 222 225 231 227 207 224 234 230 234 220 221 203 210 217 220 220 223 217 224 220 267 271 261 255 262 271 266 243
189 197 201 197 199 202 208 200 193 198 202 186 210 220 217 216 220 229 232 233 211 205 214 232 237 243 228 208 203 205 213 218 225 231 236 254 267 272 240 225 259 278 256 242
189 195 195 193 199 201 195 198 194 203 224 173 199 212 221 215 216 222 228 228 225 219 224 219 210 230 220 220 220 216 217 212 217 229 235 259 262 246 236 262 278 260 242 237
188 187 183 186 184 189 188 193 189 201 218 200 180 197 207 214 227 233 239 233 225 219 217 218 219 229 205 215 220 220 224 231 235 233 243 258 260 268 259 260 252 224 220 226
184 177 181 187 191 196 200 196 190 203 233 200 190 190 205 209 208 211 224 228 199 226 222 215 225 228 224 224 227 227 224 231 231 242 257 260 259 255 248 242 243 246 230 220
176 176 182 192 197 202 204 192 181 200 215 212 172 195 209 219 217 215 223 225 216 205 218 219 226 230 226 227 234 234 236 236 240 250 255 249 245 239 231 228 230 233 233 229
178 181 186 190 192 194 190 187 191 201 202 213 204 200 211 227 232 225 221 210 204 209 221 221 227 232 229 233 240 241 239 243 245 265 258 255 258 250 239 235 239 237 242 248
149 159 168 175 179 180 178 191 210 215 207 213 197 221 216 212 225 221 217 208 208 209 223 226 232 234 227 232 242 249 247 254 253 248 248 250 239 239 240 240 242 246 248 253
157 162 164 172 175 180 173 186 185 189 200 211 249 218 222 223 232 224 203 208 211 210 224 229 231 233 225 229 233 245 257 250 252 241 233 233 234 236 244 246 249 248 249 251
157 159 162 173 179 182 187 195 201 172 199 210 257 229 197 199 203 199 199 206 211 218 227 234 239 241 240 244 249 242 242 250 244 233 232 237 240 244 248 250 248 249 251 252
161 160 156 167 186 188 171 193 200 186 208 220 242 249 255 259 200 198 203 207 208 217 226 229 227 219 217 223 229 239 238 246 234 234 235 238 240 245 250 253 253 251 251 252
145 138 148 158 178 183 175 191 196 195 204 217 218 242 231 256 253 277 202 203 200 213 217 219 231 234 235 231 226 224 220 228 233 242 240 244 247 250 252 255 250 245 246 252
140 149 150 157 171 176 186 190 229 175 183 218 228 238 256 254 258 254 243 189 205 214 225 220 242 233 227 224 227 244 229 225 234 248 257 253 243 244 246 249 251 253 252 257
132 137 148 150 150 174 203 230 233 167 172 176 215 226 247 213 219 218 199 157 173 187 205 209 238 235 234 243 243 238 236 240 238 237 239 244 244 243 242 243 246 251 257 261
132 124 153 148 145 173 201 212 158 165 167 175 184 201 161 184 194 203 193 147 141 139 170 195 199 202 204 210 218 228 233 234 232 236 240 242 241 243 246 241 243 253 256 252
128 142 164 216 175 175 165 139 177 163 163 172 180 177 171 168 130 134 151 144 145 158 202 192 181 193 205 211 218 223 228 234 240 243 244 246 253 263 257 253 245 236 227 233
134 149 150 75 100 105 116 137 148 168 161 171 171 170 165 170 171 139 132 160 109 126 166 209 198 202 205 212 214 219 226 233 239 250 261 266 264 261 259 238 228 229 232 245
113 84 107 111 124 122 136 143 144 154 155 173 176 169 162 185 156 107 84 97 73 96 125 96 151 156 171 181 197 214 238 249 248 250 253 251 247 238 230 227 233 243 251 263
95 92 98 103 116 122 115 125 158 160 163 169 133 125 117 125 117 84 72 82 86 112 128 122 136 146 177 198 221 234 237 243 236 236 238 236 237 235 239 248 263 281 285 284